Regional Weather Roundup
Issued by NWS

Home | Current Version | Previous Version | Graphics & Text | Print | Product List | Glossary On
Versions: 1 2 3 4 5 6 7 8 9 10 11 12 13 14 15 16 17 18 19 20 21 22 23 24 25 26 27 28 29 30 31 32 33 34 35 36 37 38 39 40 41 42 43 44 45 46 47 48 49 50
000
ASUS43 KDTX 241701
RWRMI
MICHIGAN HOURLY REGIONAL WEATHER ROUNDUP
NATIONAL WEATHER SERVICE DETROIT/PONTIAC MI
100 PM EDT WED AUG 24 2016

NOTE: "FAIR" INDICATES FEW OR NO CLOUDS BELOW 12,000 FEET WITH NO
SIGNIFICANT WEATHER AND/OR OBSTRUCTION TO VISIBILITY.

MIZ047>049-052>055-059>063-066>070-074>076-081>083-241800-
SOUTHEAST LOWER MICHIGAN

CITY           SKY/WX    TMP DP  RH WIND       PRES   REMARKS
ADRIAN         LGT RAIN  77  70  79 SW17      30.08F
ALMA           CLOUDY    74  72  93 SW10      30.01F
ANN ARBOR      MOSUNNY   81  69  67 S14G20    30.07F
BAD AXE        PTSUNNY   79  64  59 S20       30.04F
CARO           MOSUNNY   80  68  65 S10G17    30.01F
DETROIT CITY   CLOUDY    79  65  62 SW12G21   30.08F
DETROIT        PTSUNNY   82  67  60 S14       30.09F
FLINT          PTSUNNY   83  68  60 S14       30.03F
GROSSE ILE     PTSUNNY   79  68  69 S12       30.08F
HILLSDALE      MOSUNNY   78  70  75 S8        30.07F
HOWELL         PTSUNNY   80  68  66 S14G20    30.05F

CITY           SKY/WX    TMP DP  RH WIND       PRES   REMARKS
JACKSON        CLOUDY    77  73  87 S13G18    30.06F
LAMBERTVILLE   MOSUNNY   83  69  62 S12G18    30.09F
LANSING        CLOUDY    77  68  73 S16       30.04S
LAPEER         NOT AVBL
MASON          CLOUDY    77  69  77 S10G16    30.05F
MONROE         CLOUDY    82  70  66 S16       30.08F
MT. CLEMENS    MOSUNNY   82  66  59 S20       30.06F
PONTIAC        CLOUDY    79  65  62 S12       30.06F
PORT HOPE        N/A     80  63  55 S8G17     30.01
PORT HURON     MOSUNNY   81  64  57 S16G23    30.08F
TRI CITIES     LGT RAIN  79  69  71 S16       30.00F
MIDLAND        LGT RAIN  74  69  85 SW7       29.99S
TROY           CLOUDY    82  61  49 S12       30.10S
SAGINAW HB     PTSUNNY   79  68  69 S16G23    30.00F
$$
MIZ043>046-050>051-056>058-064>065-071>073-077>080-241800-
SOUTHWEST LOWER MICHIGAN

CITY           SKY/WX    TMP DP  RH WIND       PRES   REMARKS
BATTLE CREEK   CLOUDY    74  71  91 S10       30.03F
BENTON HARBOR  CLOUDY    77  70  79 S16G24    29.99S
BIG RAPIDS     CLOUDY    76  70  80 S15G21    29.95F
COLDWATER      CLOUDY    77  70  79 S6        30.05F
FREMONT        PTSUNNY   78  71  79 SW17      29.95F
HOLLAND        CLOUDY    77  72  84 S10       29.99F
GRAND RAPIDS   CLOUDY    75  68  78 S12       29.99F
IONIA          CLOUDY    74  67  78 S12       30.00F
KALAMAZOO      CLOUDY    77  69  76 S12       30.01F
LUDINGTON      CLOUDY    74  71  91 S15G22    29.91F
MARSHALL       CLOUDY    77  72  83 SW8G17    30.05F
MOUNT PLEASANT CLOUDY    73  70  91 S7        29.99F
MUSKEGON       PTSUNNY   78  71  79 S17G23    29.96S
SOUTH HAVEN    CLOUDY    79  72  79 S13G20    29.99R
$$
MIZ016>042-241800-
NORTHERN LOWER MICHIGAN

CITY           SKY/WX    TMP DP  RH WIND       PRES   REMARKS
ALPENA         PTSUNNY   77  64  64 S16G24    29.94F
BEAVER ISLAND  CLOUDY    71  70  97 SW14G21   29.85F
BELLAIRE       RAIN      72  68  89 S3        29.89S
CADILLAC       CLOUDY    74  67  79 SW14G23   29.94S
CHARLEVOIX     CLOUDY    73  70  93 SW8G20    29.89F
FRANKFORT      PTSUNNY   73  69  86 S9G16     29.89F
GAYLORD        CLOUDY    70  65  84 S14       29.91F
GRAYLING       CLOUDY    71  68  90 S9        29.94F
HARBOR SPRINGS LGT RAIN  70  68  93 SW8       29.87F
HOUGHTON LAKE  CLOUDY    72  67  84 S16G23    29.96F
MANISTEE       CLOUDY    74  70  87 S9        29.90R
OSCODA         MOSUNNY   78  63  58 S20G30    29.97F
PELLSTON       CLOUDY    69  66  90 VRB6      29.87F
ROGERS CITY    LGT RAIN  69  65  87 S14G24    29.91F
TRAVERSE CITY  CLOUDY    73  69  87 S7        29.87F
$$
MIZ007>008-015-241800-
EASTERN UPPER MICHIGAN

CITY           SKY/WX    TMP DP  RH WIND       PRES   REMARKS
KINROSS        HVY RAIN  64  63  96 SE13      29.89F FOG
MACKINAC ISLAN RAIN      64  64 100 E7        29.87F
NEWBERRY       CLOUDY    66  65  96 S9        29.85F
S. S. MARIE    RAIN      65  64  97 SE9       29.88F FOG
MUNISING         N/A     69  68  96 S8        29.81
$$
MIZ004>006-011>014-085-241800-
CENTRAL UPPER MICHIGAN

CITY           SKY/WX    TMP DP  RH WIND       PRES   REMARKS
MANISTIQUE     CLOUDY    67  65  92 S8        29.83F
ESCANABA       CLOUDY    72  69  90 SW7       29.82F
MENOMINEE      LGT RAIN N/A N/A N/A W5        29.86
SAWYER-GWINN   CLOUDY    68  66  94 SW8       29.83F
$$
MIZ001>003-009>011-084-241800-
WESTERN UPPER MICHIGAN

CITY           SKY/WX    TMP DP  RH WIND       PRES   REMARKS
IRON MOUNTAIN  CLOUDY    71  66  84 SW8       29.83S
HOUGHTON       CLOUDY    73  63  70 VRB3      29.80S
COPPER HARBOR    N/A     73  66  78 VRB3      29.78S
IRONWOOD       CLOUDY    73  66  78 VRB3      29.83F
$$

ABBREVIATIONS USED IN REMARKS
   TC - TEMPERATURE IN CELSIUS
  WCI - WIND CHILL INDEX
   HX - HEAT INDEX
  VSB - VISIBILITY




USA.gov is the U.S. government's official web portal to all federal, state and local government web resources and services.